This demonstration page uses our WeatherBlox Daily Observations layout. Learn more.

Left ArrowRight Arrow

30.21309, -93.2044

Hourly Observations for May 21, 2022

Temp ( °F °C ) Dew Point ( °F °C ) Humidity (%) Winds ( mph kmh ) Pressure ( in mb ) Visibility ( mi km ) Precip ( " mm )
12:15 am 00:15 Cloudy 80 26.5 75 24 86 86 SSE 14 22 29.86 1011 10 16 0.00 0.00
12:35 am 00:35 Mostly Cloudy 80 26.4 75 23.9 86 86 SSE 14 22 29.85 1011 10 16 0.00 0.00
12:55 am 00:55 Cloudy 80 26.5 75 23.9 86 86 SSE 16 26 29.85 1011 10 16 0.00 0.00
1:15 am 01:15 Mostly Cloudy 80 26.4 75 23.9 86 86 SSE 14 22 29.85 1011 10 16 0.00 0.00
1:35 am 01:35 Mostly Cloudy 80 26.4 75 23.8 86 86 SSE 15 24 29.84 1010 10 16 0.00 0.00
1:55 am 01:55 Mostly Cloudy 79 26.2 75 23.8 87 87 SSE 17 28 29.83 1010 10 16 0.00 0.00
2:15 am 02:15 Partly Cloudy 79 26.1 75 23.7 87 87 SSE 16 26 29.82 1010 10 16 0.00 0.00
2:35 am 02:35 Partly Cloudy 79 26 74 23.5 86 86 SSE 15 24 29.81 1009 10 16 0.00 0.00
2:55 am 02:55 Mostly Cloudy 78 25.8 74 23.5 87 87 SSE 12 19 29.82 1010 10 16 0.00 0.00
3:15 am 03:15 Cloudy 79 26.3 75 23.7 86 86 S 12 19 29.83 1010 10 16 0.00 0.00
3:35 am 03:35 Mostly Cloudy 79 26.2 74 23.6 86 86 S 15 24 29.83 1010 10 16 0.00 0.00
3:55 am 03:55 Mostly Cloudy 79 26.2 74 23.6 86 86 SSE 14 22 29.83 1010 10 16 0.00 0.00
4:15 am 04:15 Cloudy 80 26.5 75 23.7 85 85 S 12 19 29.85 1011 10 16 0.00 0.00
4:35 am 04:35 Cloudy 79 26.3 75 23.7 86 86 S 12 19 29.85 1011 10 16 0.00 0.00
4:55 am 04:55 Cloudy 80 26.6 75 23.8 85 85 S 12 19 29.86 1011 10 16 0.00 0.00
5:15 am 05:15 Cloudy 80 26.4 75 23.7 85 85 S 13 20 29.86 1011 10 16 0.00 0.00
5:35 am 05:35 Cloudy 79 26.2 75 23.7 86 86 S 10 17 29.86 1011 10 16 0.00 0.00
6:00 am 06:00 Partly Cloudy 79 26 73 23 84 84 S 10 17 29.86 1011 10 16 0.00 0.00
6:45 am 06:45 Partly Cloudy 79 26 73 23 84 84 SSE 8 13 29.88 1012 10 16 0.00 0.00
7:52 am 07:52 Partly Cloudy 81 27 75 24 84 84 S 12 19 29.91 1013 10 16 0.00 0.00
8:50 am 08:50 Partly Cloudy 84 29 73 23 70 70 S 21 33 29.92 1013 10 16 0.00 0.00
9:55 am 09:55 Mostly Cloudy 88 31 73 23 62 62 S 17 28 29.94 1014 10 16 0.00 0.00
10:48 am 10:48 Mostly Cloudy 88 31 73 23 62 62 SSE 18 30 29.94 1014 10 16 0.00 0.00
11:55 am 11:55 Mostly Cloudy 90 32 73 23 59 59 S 14 22 29.96 1015 10 16 0.00 0.00
12:54 pm 12:54 Mostly Cloudy 91 33 75 24 59 59 SSE 17 28 29.96 1015 10 16 0.00 0.00
1:53 pm 13:53 Mostly Cloudy 91 33 73 23 56 56 SSE 18 30 29.96 1015 10 16 0.00 0.00
2:50 pm 14:50 Mostly Cloudy 91 33 75 24 59 59 S 18 30 29.96 1015 10 16 0.00 0.00
3:45 pm 15:45 Mostly Cloudy 90 32 75 24 63 63 S 21 33 29.94 1014 10 16 0.00 0.00
4:50 pm 16:50 Mostly Cloudy 90 32 75 24 63 63 S 20 31 29.93 1014 10 16 0.00 0.00
5:55 pm 17:55 Mostly Cloudy 88 31 75 24 66 66 SSE 18 30 29.93 1014 10 16 0.00 0.00
6:55 pm 18:55 Partly Cloudy 84 29 75 24 74 74 SSE 14 22 29.94 1014 10 16 0.00 0.00
7:55 pm 19:55 Partly Cloudy 82 28 75 24 79 79 SSE 9 15 29.96 1015 10 16 0.00 0.00
8:55 pm 20:55 Mostly Cloudy 81 27 75 24 84 84 SSE 13 20 29.99 1016 10 16 0.00 0.00
9:49 pm 21:49 Mostly Cloudy 81 27 75 24 84 84 SE 10 17 30.00 1016 10 16 0.00 0.00
10:15 pm 22:15 Partly Cloudy 80 26.7 76 24.2 86 86 SE 12 19 30.00 1016 10 16 0.00 0.00
10:35 pm 22:35 Partly Cloudy 80 26.6 76 24.2 87 87 SSE 13 20 30.00 1016 10 16 0.00 0.00
10:55 pm 22:55 Mostly Cloudy 80 26.5 73 23 81 81 SE 20 31 30.00 1016 10 16 0.00 0.00
11:15 pm 23:15 Partly Cloudy 77 24.9 73 22.5 87 87 SSE 15 24 29.99 1016 10 16 0.00 0.00
11:35 pm 23:35 Clear 76 24.6 72 22.4 88 88 SE 14 22 30.00 1016 10 16 0.00 0.00
11:55 pm 23:55 Clear 76 24.6 72 22.4 88 88 SE 12 19 30.00 1016 10 16 0.00 0.00

Powered by AerisWeather